Regional Weather Roundup
Issued by NWS

Home | Current Version | Previous Version | Graphics & Text | Print | Product List | Glossary On
Versions: 1 2 3 4 5 6 7 8 9 10 11 12 13 14 15 16 17 18 19 20 21 22 23 24 25 26 27 28 29 30 31 32 33 34 35 36 37 38 39 40 41 42 43 44 45 46 47 48 49 50
000
ASUS43 KOAX 192202
RWRNE

WEATHER ROUNDUP FOR NEBRASKA
NATIONAL WEATHER SERVICE OMAHA NE
500 PM CDT SAT APR 19 2014

NOTES: SATELLITE DATA IS BEING USED TO AUGMENT CLOUD COVER ABOVE
       12000 FEET.
       "FAIR" INDICATES FEW OR NO CLOUDS BELOW 12,000 FEET WITH NO
       SIGNIFICANT WEATHER AND/OR OBSTRUCTIONS TO VISIBILITY.

  * THESE STATIONS DO NOT REPORT WEATHER SUCH AS RAIN...SNOW OR FOG.

NEZ001>004-019>022-054>056-192300-
NEBRASKA PANHANDLE

CITY           SKY/WX    TMP DP  RH WIND       PRES   REMARKS
SCOTTSBLUFF    MOSUNNY   64  33  31 SE9       30.01F
ALLIANCE       MOSUNNY   64  28  25 SE10      30.02F
CHADRON        PTSUNNY   65  32  29 S8        30.00F
KIMBALL        MOSUNNY   62  31  31 E9        30.02F
SIDNEY         PTSUNNY   63  33  32 NE6       30.05F
$$

NEZ057>060-069>072-079>082-192300-
SOUTHWEST NEBRASKA

CITY           SKY/WX    TMP DP  RH WIND       PRES   REMARKS
NORTH PLATTE   MOSUNNY   66  43  43 NE14      29.97F
IMPERIAL       PTSUNNY   69  40  34 NE15      29.99F
LEXINGTON      MOSUNNY   70  49  48 CALM      29.96F
MCCOOK         CLOUDY    71  49  45 NE17      29.94F
OGALLALA       PTSUNNY   70  34  26 E10       30.00F
$$

NEZ005>010-023>029-035>040-094-192300-
NORTH CENTRAL NEBRASKA

CITY           SKY/WX    TMP DP  RH WIND       PRES   REMARKS
VALENTINE      PTSUNNY   63  16  16 E6        30.03S
AINSWORTH      PTSUNNY   67  26  21 NE7       30.02S
BROKEN BOW     PTSUNNY   67  47  48 E10       29.98F
O`NEILL        MOSUNNY   67  36  32 NE5       30.01F
ORD            PTSUNNY   68  47  46 MISG      29.97F
THEDFORD       PTSUNNY   70  30  22 E7        30.01F
$$

NEZ041-046>049-061>064-073>077-083>087-192300-
SOUTH CENTRAL NEBRASKA

CITY           SKY/WX    TMP DP  RH WIND       PRES   REMARKS
GRAND ISLAND   PTSUNNY   76  49  38 CALM      29.94F
AURORA         PTSUNNY   76  50  40 S7        29.93F
HASTINGS       PTSUNNY   78  48  34 N7        29.92F
HEBRON         CLOUDY    79  48  33 S18G25    29.93F
HOLDREGE       MOSUNNY   73  48  41 NE9       29.93F
KEARNEY *      MOSUNNY   73  50  43 NE6       29.95S
YORK           CLOUDY    77  50  38 S15       29.94F
$$

NEZ011>018-030>034-042>045-192300-
NORTHEAST NEBRASKA

CITY           SKY/WX    TMP DP  RH WIND       PRES   REMARKS
NORFOLK        CLOUDY    73  48  41 NW7       29.96F
ALBION         PTSUNNY   71  47  42 CALM      29.97F
BLAIR          CLOUDY    77  43  29 S20G25    29.97F
COLUMBUS *     CLOUDY    73  48  40 S10       29.96F
FREMONT        CLOUDY    77  45  32 S9G16     29.96F
TEKAMAH        CLOUDY    79  45  29 S22       29.95F
$$

NEZ050>053-065>068-078-088>093-192300-
SOUTHEAST NEBRASKA

CITY           SKY/WX    TMP DP  RH WIND       PRES   REMARKS
LINCOLN        CLOUDY    79  48  33 SW15      29.95F
OMAHA EPPLEY   PTSUNNY   79  44  28 S20       29.97F
BEATRICE       MOSUNNY   79  47  32 S20G25    29.96F
NEBRASKA CITY  SUNNY     78  44  29 S22G29    29.99S
PLATTSMOUTH    CLOUDY    81  39  22 S20G26    29.98F
$$

NEZ044-045-051>053-067-192300-
OMAHA AREA

CITY           SKY/WX    TMP DP  RH WIND       PRES   REMARKS
OMAHA EPPLEY   PTSUNNY   79  44  28 S20       29.97F
BLAIR          CLOUDY    77  43  29 S20G25    29.97F
FREMONT        CLOUDY    77  45  32 S9G16     29.96F
MILLARD        CLOUDY    78  45  31 S10G20    29.96S
OFFUTT AFB     MOSUNNY   78  46  31 S15       29.97F
PLATTSMOUTH    CLOUDY    81  39  22 S20G26    29.98F
WAHOO          CLOUDY    77  42  28 S15       29.96F
$$



USA.gov is the U.S. government's official web portal to all federal, state and local government web resources and services.